Time,TemperatureF,DewpointF,PressureIn,WindDirection,WindDirectionDegrees,WindSpeedMPH,WindSpeedGustMPH,Humidity,HourlyPrecipIn,Conditions,Clouds,dailyrainin,SoftwareType,DateUTC
2018-04-25 00:04:00,26.0,19.0,-100.00,South,188,4.0,4.0,74,-99.99,,,-99.99,,2018-04-25 06:04:00,
2018-04-25 00:34:00,25.0,19.0,-100.00,South,171,5.0,6.0,76,-99.99,,,-99.99,,2018-04-25 06:34:00,
2018-04-25 01:04:00,23.0,18.0,-100.00,SSE,147,4.0,5.0,80,-99.99,,,-99.99,,2018-04-25 07:04:00,
2018-04-25 01:34:00,26.0,18.0,-100.00,South,176,4.0,6.0,74,-99.99,,,-99.99,,2018-04-25 07:34:00,
2018-04-25 02:04:00,22.0,17.0,-100.00,East,95,3.0,4.0,81,-99.99,,,-99.99,,2018-04-25 08:04:00,
2018-04-25 02:34:00,24.0,18.0,-100.00,South,178,2.0,2.0,80,-99.99,,,-99.99,,2018-04-25 08:34:00,
2018-04-25 03:04:00,25.0,18.0,-100.00,South,172,10.0,12.0,73,-99.99,,,-99.99,,2018-04-25 09:04:00,
2018-04-25 03:34:00,25.0,17.0,-100.00,West,281,2.0,4.0,74,-99.99,,,-99.99,,2018-04-25 09:34:00,
2018-04-25 05:34:00,24.0,16.0,-100.00,West,261,5.0,6.0,69,-99.99,,,-99.99,,2018-04-25 11:34:00,
2018-04-25 06:04:00,22.0,15.0,-100.00,ESE,114,1.0,2.0,76,-99.99,,,-99.99,,2018-04-25 12:04:00,
2018-04-25 06:34:00,22.0,16.0,-100.00,East,92,6.0,7.0,77,-99.99,,,-99.99,,2018-04-25 12:34:00,
2018-04-25 07:04:00,26.0,16.0,-100.00,SSW,213,4.0,5.0,67,-99.99,,,-99.99,,2018-04-25 13:04:00,
2018-04-25 10:07:00,43.0,14.0,-100.00,SSW,200,15.0,19.0,30,-99.99,,,-99.99,,2018-04-25 16:07:00,
2018-04-25 11:05:00,45.0,15.0,-100.00,South,185,16.0,21.0,30,-99.99,,,-99.99,,2018-04-25 17:05:00,
2018-04-25 11:35:00,47.0,14.0,-100.00,South,182,19.0,23.0,27,-99.99,,,-99.99,,2018-04-25 17:35:00,
2018-04-25 12:05:00,49.0,15.0,-100.00,South,174,18.0,24.0,25,-99.99,,,-99.99,,2018-04-25 18:05:00,
2018-04-25 12:35:00,50.0,13.0,-100.00,South,174,18.0,22.0,23,-99.99,,,-99.99,,2018-04-25 18:35:00,
2018-04-25 13:05:00,51.0,12.0,-100.00,South,176,17.0,23.0,20,-99.99,,,-99.99,,2018-04-25 19:05:00,
2018-04-25 13:35:00,52.0,11.0,-100.00,South,178,20.0,23.0,19,-99.99,,,-99.99,,2018-04-25 19:35:00,
2018-04-25 14:05:00,54.0,7.0,-100.00,South,181,18.0,21.0,14,-99.99,,,-99.99,,2018-04-25 20:05:00,
2018-04-25 14:34:00,55.0,9.0,-100.00,South,172,16.0,23.0,16,-99.99,,,-99.99,,2018-04-25 20:34:00,
2018-04-25 15:05:00,55.0,9.0,-100.00,South,172,19.0,22.0,16,-99.99,,,-99.99,,2018-04-25 21:05:00,
2018-04-25 16:07:00,56.0,7.0,-100.00,South,171,21.0,25.0,14,-99.99,,,-99.99,,2018-04-25 22:07:00,
2018-04-25 16:35:00,57.0,11.0,-100.00,South,179,14.0,19.0,15,-99.99,,,-99.99,,2018-04-25 22:35:00,
2018-04-25 17:05:00,58.0,7.0,-100.00,South,178,14.0,18.0,12,-99.99,,,-99.99,,2018-04-25 23:05:00,
2018-04-25 18:34:00,56.0,0.0,-100.00,South,175,20.0,24.0,10,-99.99,,,-99.99,,2018-04-26 00:34:00,
2018-04-25 19:05:00,55.0,6.0,-100.00,South,174,21.0,29.0,13,-99.99,,,-99.99,,2018-04-26 01:05:00,
2018-04-25 19:34:00,51.0,9.0,-100.00,SSE,160,10.0,12.0,18,-99.99,,,-99.99,,2018-04-26 01:34:00,